THOR ABLESTAR DEB, 649

Orbit data source: Space-Track

THOR ABLESTAR DEB, 649 is space debris in LEO originally from a launch on Thu, 29 Jun 1961 UTC launched from the Air Force Eastern Test Range (AFETR). Debris objects in space refer to the collection of defunct objects orbiting the Earth. Examples of debris include non-operational satellites, rocket bodies, and fragments generated from explosions, collisions, or faulty payload assembly.

Loading next visibility...
Identifier
649, 1961-015HA
Orbit
LEO
Country
Flag of USUS
Related business
Manufacturer
Unknown
Mission
Spacecraft
Bus & Motor
Unknown
Mass
Unknown
Launch date (UTC)
1961-06-29 (65 years ago)
Launch vehicle
Unknown
Launch site
Air Force Eastern Test Range (AFETR)
Object type
Payload
Rocket body
Debris
Shape & HBR
Unknown shape, 0.1 m
Radar Cross Section
Small (<0.1 m²)

Expand to show TLE details & history
Last TLE update: 7 hours ago

TLE from 7 hours ago
0 THOR ABLESTAR DEB
1   649U 61015HA  26118.77938830 -.00000206  00000-0 -43900-3 0  9994
2   649  66.2660 270.1679 0553769  66.8580  42.4708 12.65327387986380
Epoch: 2026-04-28T18:42Z
TLE epoch observation values (Epoch: 2026-04-28T18:42:19.149Z)
Latitude
56.97461°
Longitude
-89.4526°
Altitude
1,103.475 km
Speed
7.449 km/s
True Right ascension
03h 11m 30s
True Declination
56° 49' 28"
Sunlit
Object was in daylight at epoch
Visualization orbit readout
Latitude
Unknown
Longitude
Unknown
Altitude
Unknown
Speed
Unknown
Apparent Right ascension
Unknown
Apparent Declination
Unknown
Sunlit
N/A
Visualization observer readout
Local Sidereal Time
09:35:32
Azimuth
Unknown
Elevation
Unknown
Doppler factor
Unknown
Orbital elements
Apogee altitude
1,830.281 km
Perigee altitude
968.87 km
Semi-major axis
7,777.713 km
Eccentricity
0.05538
Inclination
66.266°
RAAN
270.1679°
Arg. of periapsis
66.858°
True anomaly
46.98085°
Mean anomaly
42.4708°
Eccentric anomaly
44.70268°
Mean motion
3.16421 °/min
Orbital period
113.77 mins
BSTAR
-0.000439
Loading maneuver chart data...
Computing Atmospheric mass density...
Loading historical data...
Loading historical data...
Loading historical data...
Loading historical data...
Loading historical data...
Loading historical data...
Loading historical data...

Documentation

Showing up to 5 results
|